Tracking 35237 objects as of 5-Sep-2026
HD Live streaming from Space Station
objects crossing your sky now

STARLINK-33969

Track STARLINK-33969 now!
10-day predictions
STARLINK-33969 is classified as:


NORAD ID: 63855
Int'l Code: 2025-093V
Launch date: May 7, 2025
Source: United States (US)
Launch site: AIR FORCE EASTERN TEST RANGE (AFETR)
Your satellite tracking list
Your tracking list is empty




NASA's NSSDC Master Catalog

Two Line Element Set (TLE):
1 63855U 25093V   26248.11511837  .00013845  00000-0  51159-3 0  9990
2 63855  43.0009 144.5239 0001319 280.4145  79.6558 15.27586980 75194
Source of the keplerian elements: AFSPC